Date String (YYYY-MM-DD hh:mm:ss) UTC,Instrument flags,absolute air pressure of the measurement (hPa),sample flow rate (lpm),inlet stack bypass flow (lpm),air temperature of the measurement (°C),ambient temperature measured by the external sensor (°C),aerosol sample conditioner tube jacket temperature (°C),OPC LED temperature (°C),internal box temperature (°C),relative humidity of the measurement (%),span deviation,mass concentration of particles derived from Lorenz-Mie calculation of OPC scattering (μg/m³),mass concentration of particles derived from Lorenz-Mie calculation of OPC scattering (μg/m³),mass concentration of particles derived from Lorenz-Mie calculation of OPC scattering (μg/m³)
DateTimeUTC,F1_M11,P_M11,Q1_M11,Q2_M11,T1_M11,T2_M11,T3_M11,T4_M11,T5_M11,U1_M11,ZSPAN_M11,X0_M11,X2_M11,X1_M11
2024-04-24 09:00:00,SystemResetWarning,0830.9,5.00,000.00,025.6,024.8,000.0,034.2,027.4,021.2,0000.0,0009.83,0004.36,0003.33
2024-04-24 09:01:00,SystemResetWarning,0830.9,5.01,000.00,025.6,024.8,000.0,034.2,027.4,021.2,0000.0,0010.54,0004.38,0003.34
2024-04-24 09:02:00,SystemResetWarning,0830.9,5.01,000.00,025.6,024.8,000.0,034.2,027.4,021.1,0000.0,0010.93,0004.36,0003.34
2024-04-24 09:03:00,SystemResetWarning,0830.9,5.00,000.00,025.6,024.8,000.0,034.2,027.4,021.1,0000.0,0011.45,0004.38,0003.35
2024-04-24 09:04:00,SystemResetWarning,0830.9,5.00,000.00,025.6,024.8,000.0,034.2,027.4,021.1,0000.0,0011.42,0004.36,0003.34
2024-04-24 09:05:00,SystemResetWarning,0830.9,5.00,000.00,025.6,024.8,000.0,034.2,027.4,021.1,0000.0,0010.94,0004.32,0003.33
2024-04-24 09:06:00,SystemResetWarning,0830.9,5.00,000.00,025.6,024.8,000.0,034.2,027.4,021.2,0000.0,0010.62,0004.28,0003.33
2024-04-24 09:07:00,SystemResetWarning,0830.9,5.00,000.00,025.6,024.8,000.0,034.2,027.4,021.0,0000.0,0010.16,0004.26,0003.34
2024-04-24 09:08:00,SystemResetWarning,0830.9,5.00,000.00,025.6,024.8,000.0,034.2,027.4,021.1,0000.0,0010.56,0004.23,0003.34
2024-04-24 09:09:00,SystemResetWarning,0830.9,5.00,000.00,025.6,024.8,000.0,034.2,027.4,021.1,0000.0,0011.08,0004.26,0003.34
2024-04-24 09:10:00,SystemResetWarning,0831.0,5.00,000.00,025.6,024.8,000.0,034.2,027.4,021.0,0000.0,0011.21,0004.29,0003.34
2024-04-24 09:11:00,SystemResetWarning,0831.0,5.00,000.00,025.6,024.8,000.0,034.2,027.4,021.0,0000.0,0011.30,0004.30,0003.35
2024-04-24 09:12:00,SystemResetWarning,0830.9,5.00,000.00,025.6,024.8,000.0,034.1,027.4,021.2,0000.0,0011.00,0004.32,0003.35
2024-04-24 09:13:00,SystemResetWarning,0830.9,5.00,000.00,025.6,024.8,000.0,034.1,027.4,021.2,0000.0,0010.93,0004.34,0003.36
2024-04-24 09:14:00,SystemResetWarning,0830.9,5.00,000.00,025.6,024.8,000.0,034.1,027.4,021.1,0000.0,0011.58,0004.34,0003.37
2024-04-24 09:15:00,SystemResetWarning,0830.8,5.00,000.00,025.6,024.8,000.0,034.1,027.4,021.1,0000.0,0011.31,0004.33,0003.38
2024-04-24 09:16:00,SystemResetWarning,0830.9,5.00,000.00,025.6,024.8,000.0,034.1,027.4,021.1,0000.0,0011.23,0004.37,0003.39
2024-04-24 09:17:00,SystemResetWarning,0830.8,5.00,000.00,025.6,024.8,000.0,034.1,027.4,021.1,0000.0,0011.32,0004.42,0003.41
2024-04-24 09:18:00,SystemResetWarning,0830.7,5.00,000.00,025.6,024.8,000.0,034.1,027.4,021.1,0000.0,0011.42,0004.43,0003.41
2024-04-24 09:19:00,SystemResetWarning,0830.7,5.00,000.00,025.6,024.8,000.0,034.1,027.4,021.1,0000.0,0011.52,0004.47,0003.41
2024-04-24 09:20:00,SystemResetWarning,0830.6,5.00,000.00,025.6,024.8,000.0,034.1,027.4,021.1,0000.0,0011.33,0004.45,0003.41
2024-04-24 09:21:00,SystemResetWarning,0830.6,5.01,000.00,025.6,024.8,000.0,034.1,027.4,021.1,0000.0,0011.39,0004.48,0003.41
2024-04-24 09:22:00,SystemResetWarning,0830.6,5.00,000.00,025.6,024.8,000.0,034.1,027.4,021.1,0000.0,0011.34,0004.44,0003.41
2024-04-24 09:23:00,SystemResetWarning,0830.5,5.00,000.00,025.6,024.8,000.0,034.1,027.4,021.2,0000.0,0011.06,0004.40,0003.41
2024-04-24 09:24:00,SystemResetWarning,0830.5,5.00,000.00,025.6,024.8,000.0,034.1,027.4,021.1,0000.0,0011.77,0004.45,0003.42
2024-04-24 09:25:00,SystemResetWarning,0830.6,5.00,000.00,025.6,024.8,000.0,034.1,027.4,021.1,0000.0,0010.94,0004.50,0003.43
2024-04-24 09:26:00,SystemResetWarning,0830.6,5.01,000.00,025.6,024.8,000.0,034.1,027.4,021.1,0000.0,0011.47,0004.54,0003.44
2024-04-24 09:27:00,SystemResetWarning,0830.6,5.00,000.00,025.6,024.8,000.0,034.1,027.4,021.1,0000.0,0012.03,0004.57,0003.44
2024-04-24 09:28:00,SystemResetWarning,0830.5,5.01,000.00,025.6,024.8,000.0,034.1,027.4,021.1,0000.0,0012.34,0004.59,0003.45
2024-04-24 09:29:00,SystemResetWarning,0830.5,5.00,000.00,025.6,024.8,000.0,034.1,027.4,021.1,0000.0,0012.35,0004.60,0003.45
2024-04-24 09:30:00,SystemResetWarning,0830.4,5.00,000.00,025.6,024.8,000.0,034.1,027.4,021.0,0000.0,0012.14,0004.61,0003.45
2024-04-24 09:31:00,SystemResetWarning,0830.4,5.00,000.00,025.6,024.8,000.0,034.1,027.4,021.0,0000.0,0011.91,0004.63,0003.46
2024-04-24 09:32:00,SystemResetWarning,0830.6,5.00,000.00,025.6,024.8,000.0,034.1,027.4,021.0,0000.0,0012.10,0004.64,0003.47
2024-04-24 09:33:00,SystemResetWarning,0830.6,5.00,000.00,025.6,024.8,000.0,034.1,027.4,021.0,0000.0,0012.88,0004.65,0003.47
2024-04-24 09:34:00,SystemResetWarning,0830.4,5.00,000.00,025.6,024.8,000.0,034.1,027.4,021.1,0000.0,0013.16,0004.65,0003.48
2024-04-24 09:35:00,SystemResetWarning,0830.4,5.00,000.00,025.6,024.8,000.0,034.1,027.4,021.2,0000.0,0012.76,0004.67,0003.49
2024-04-24 09:36:00,SystemResetWarning,0830.4,4.99,000.00,025.6,024.8,000.0,034.1,027.4,021.3,0000.0,0012.56,0004.64,0003.49
2024-04-24 09:37:00,SystemResetWarning,0830.4,5.00,000.00,025.6,024.8,000.0,034.1,027.4,021.3,0000.0,0012.43,0004.62,0003.49
2024-04-24 09:38:00,SystemResetWarning,0830.4,5.00,000.00,025.6,024.8,000.0,034.1,027.4,021.3,0000.0,0012.24,0004.57,0003.47
2024-04-24 09:39:00,SystemResetWarning,0830.4,5.01,000.00,025.5,024.8,000.0,034.1,027.4,021.2,0000.0,0012.59,0004.55,0003.47
2024-04-24 09:40:00,SystemResetWarning,0830.4,5.01,000.00,025.6,024.8,000.0,034.1,027.4,021.1,0000.0,0012.43,0004.54,0003.48
2024-04-24 09:41:00,SystemResetWarning,0830.7,5.00,000.00,025.6,024.8,000.0,034.1,027.4,021.1,0000.0,0012.73,0004.52,0003.48
2024-04-24 09:42:00,SystemResetWarning,0830.6,5.00,000.00,025.5,024.8,000.0,034.1,027.4,021.1,0000.0,0012.61,0004.57,0003.49
2024-04-24 09:43:00,SystemResetWarning,0830.6,5.00,000.00,025.5,024.8,000.0,034.1,027.4,021.1,0000.0,0012.45,0004.58,0003.50
2024-04-24 09:44:00,SystemResetWarning,0830.6,4.99,000.00,025.5,024.8,000.0,034.1,027.4,021.1,0000.0,0011.54,0004.56,0003.51
2024-04-24 09:45:00,SystemResetWarning,0830.5,4.99,000.00,025.5,024.8,000.0,034.1,027.4,021.2,0000.0,0011.17,0004.57,0003.51
2024-04-24 09:46:00,SystemResetWarning,0830.6,5.00,000.00,025.5,024.8,000.0,034.1,027.4,021.2,0000.0,0011.00,0004.55,0003.52
2024-04-24 09:47:00,SystemResetWarning,0830.5,5.01,000.00,025.5,024.8,000.0,034.1,027.4,021.2,0000.0,0010.67,0004.52,0003.53
2024-04-24 09:48:00,SystemResetWarning,0830.5,5.00,000.00,025.5,024.8,000.0,034.1,027.4,021.2,0000.0,0010.20,0004.54,0003.55
2024-04-24 09:49:00,SystemResetWarning,0830.5,5.00,000.00,025.5,024.7,000.0,034.1,027.3,021.3,0000.0,0010.46,0004.62,0003.58
2024-04-24 09:50:00,SystemResetWarning,0830.4,4.99,000.00,025.5,024.7,000.0,034.1,027.4,021.3,0000.0,0009.76,0004.62,0003.60
2024-04-24 09:51:00,SystemResetWarning,0830.4,5.00,000.00,025.5,024.7,000.0,034.1,027.4,021.3,0000.0,0009.90,0004.58,0003.60
2024-04-24 09:52:00,SystemResetWarning,0830.5,5.00,000.00,025.5,024.7,000.0,034.1,027.3,021.3,0000.0,0009.61,0004.57,0003.61
2024-04-24 09:53:00,SystemResetWarning,0830.5,5.00,000.00,025.5,024.7,000.0,034.1,027.3,021.3,0000.0,0009.81,0004.54,0003.61
2024-04-24 09:54:00,SystemResetWarning,0830.5,5.02,000.00,025.5,024.7,000.0,034.1,027.3,021.3,0000.0,0009.84,0004.51,0003.61
2024-04-24 09:55:00,SystemResetWarning,0830.5,5.00,000.00,025.5,024.7,000.0,034.1,027.3,021.3,0000.0,0010.06,0004.50,0003.61
2024-04-24 09:56:00,SystemResetWarning,0830.5,5.00,000.00,025.5,024.7,000.0,034.1,027.3,021.1,0000.0,0010.62,0004.49,0003.60
2024-04-24 09:57:00,SystemResetWarning,0830.5,5.00,000.00,025.5,024.7,000.0,034.0,027.3,021.1,0000.0,0010.71,0004.50,0003.58
2024-04-24 09:58:00,SystemResetWarning,0830.6,4.99,000.00,025.4,024.7,000.0,034.0,027.3,021.1,0000.0,0010.79,0004.53,0003.58
2024-04-24 09:59:00,SystemResetWarning,0830.6,5.00,000.00,025.4,024.7,000.0,034.0,027.3,021.0,0000.0,0010.75,0004.51,0003.57
